S-Net K
1 43189U 18014K 19164.74478884 .00000203 00000-0 22886-4 0 9995
2 43189 97.7097 73.2569 0011628 29.0864 331.1003 14.96638161 72943
FMN 1
1 43192U 18015A 19164.80344017 .00001490 00000-0 63863-4 0 9996
2 43192 97.3984 292.6111 0015099 315.7056 44.2971 15.24241774 75572
Shaonian Xing
1 43199U 18015H 19164.81608928 .00001086 00000-0 46586-4 0 9992
2 43199 97.3776 291.7601 0016459 327.8469 32.1761 15.24762364 75627
1KUNS-PF
1 43466U 98067NP 19164.80920939 .00017410 00000-0 17185-3 0 9992
2 43466 51.6383 359.2072 0001354 119.5716 240.5415 15.66016668 62152
UBAKUSAT
1 43467U 98067NQ 19164.74416673 .00010444 00000-0 11985-3 0 9993
2 43467 51.6382 3.2720 0002645 70.3520 289.7760 15.62698258 62109
Irazu
1 43468U 98067NR 19164.80713435 .00025410 00000-0 22196-3 0 9992
2 43468 51.6371 356.1724 0001278 141.4041 218.7047 15.68776102162181
EnduroSat One
1 43551U 98067NZ 19163.86925879 .00012162 00000-0 13836-3 0 9998
2 43551 51.6384 10.1776 0006436 124.7456 235.4145 15.62727132 52161
EQUISat
1 43552U 98067PA 19164.80487147 .00010087 00000-0 12105-3 0 9997
2 43552 51.6398 6.6941 0006728 126.3764 233.7852 15.61562973 52250
UiTMSat 1
1 43589U 98067PD 19164.80835248 .00011366 00000-0 13518-3 0 9996
2 43589 51.6371 7.4195 0006064 133.8869 226.2626 15.61649525 47982
Maya 1
1 43590U 98067PE 19163.84363621 .00011464 00000-0 13630-3 0 9996
2 43590 51.6371 12.2310 0006180 130.2806 229.8729 15.61647183 47765
Bhutan 1
1 43591U 98067PF 19164.09047340 .00011421 00000-0 13549-3 0 9994
2 43591 51.6386 10.8977 0006388 132.0068 228.1471 15.61709021 47806
SiriusSat 1
1 43595U 98067PG 19163.81771365 .00009811 00000-0 12087-3 0 9994
2 43595 51.6376 13.5563 0004138 94.1810 265.9657 15.60920484 46928
SiriusSat 2
1 43596U 98067PH 19163.84749623 .00010553 00000-0 13031-3 0 9995
2 43596 51.6386 13.7883 0004679 94.2150 265.9378 15.60759688 46921
Tanusha-3
1 43597U 98067PJ 19164.74626449 .00013223 00000-0 15268-3 0 9997
2 43597 51.6368 7.7329 0004246 111.9712 248.1734 15.62258544 47085
SurfSat
1 43614U 18070B 19164.52080712 .00001773 00000-0 48305-4 0 9992
2 43614 93.0227 1.5418 0014688 335.2100 24.8446 15.37503226 41617
CP-7 DAVE
1 43615U 18070C 19163.81029044 .00001723 00000-0 47065-4 0 9992
2 43615 93.0232 1.2501 0014976 337.3764 22.6828 15.37425000 41504
ELFIN-B
1 43616U 18070D 19163.82041506 .00002681 00000-0 71666-4 0 9999
2 43616 93.0198 1.1695 0015842 341.0985 18.9678 15.38025539 41515
ELFIN-A
1 43617U 18070E 19163.81442973 .00002573 00000-0 68741-4 0 9992
2 43617 93.0254 1.3776 0014861 338.2400 21.8220 15.38067020 41518
STARS-Me Mother
1 43640U 98067PQ 19164.03954584 .00007216 00000-0 99351-4 0 9993
2 43640 51.6383 15.8116 0005986 81.6027 278.5644 15.58427310 38844
CubeBel 1
1 43666U 18083E 19164.87921387 .00000877 00000-0 47008-4 0 9996
2 43666 97.5198 189.3909 0014354 199.5820 284.6058 15.17567516 34550
Changshagaoxin
1 43669U 18083H 19164.76966381 .00000609 00000-0 34428-4 0 9995
2 43669 97.5063 188.6049 0010617 189.1466 170.9575 15.16778278 34481
Ten-Koh
1 43677U 18084G 19164.31776918 .00000126 00000-0 18865-4 0 9992
2 43677 97.8511 278.0829 0014779 302.8108 57.1685 14.90167323 33819
PO-101
1 43678U 18084H 19164.84268557 .00000097 00000-0 15388-4 0 9990
2 43678 97.8503 279.1084 0009536 328.6075 31.4556 14.91555995 33921
IRVINE 01
1 43693U 18088D 19164.68189449 .00001952 00000-0 85067-4 0 9997
2 43693 85.0343 321.4237 0017414 205.1242 154.9155 15.21352225 32604
QO-100
1 43700U 18090A 19163.86127918 .00000134 00000-0 00000-0 0 9992
2 43700 000.0187 022.7710 0001334 057.7533 156.1777 01.00274047001990
Reaktor Hello World
1 43743U 18096AA 19164.85435697 .00000916 00000-0 37708-4 0 9998
2 43743 97.4600 234.8570 0017967 358.9179 107.0952 15.26595976 29998
MinXSS-2
1 43758U 18099A 19163.86518401 .00000316 00000-0 33805-4 0 9990
2 43758 97.7450 235.9867 0015241 352.5299 7.5693 14.95400416 28564
AO-95
1 43770U 18099N 19164.74905959 .00000583 00000-0 58859-4 0 9992
2 43770 97.7454 236.6813 0014334 356.9187 3.1942 14.94761127 28687
RANGE-B
1 43772U 18099Q 19164.73839483 .00000552 00000-0 55886-4 0 9994
2 43772 97.7506 236.8175 0013530 343.9632 16.1158 14.94864220 28678
RANGE-A
1 43773U 18099R 19164.13945796 .00000439 00000-0 45603-4 0 9994
2 43773 97.7401 235.9734 0013008 346.2835 13.8030 14.94797636 28584
MOVE-II
1 43780U 18099Y 19164.65011200 .00000013 00000-0 64995-5 0 9997
2 43780 97.7442 236.6191 0013294 355.5015 4.6084 14.95048172 28652
SNUSat 2
1 43782U 18099AA 19164.64474757 -.00000200 00000-0 -12947-4 0 9997
2 43782 97.7450 236.6541 0012333 344.9330 15.1521 14.95046879 28663
SnugLite
1 43784U 18099AC 19164.76893935 .00000000 00000-0 53027-5 0 9996
2 43784 97.7416 236.7122 0014833 351.9491 8.1489 14.95127911 28691
ITASat 1
1 43786U 18099AE 19164.76704242 .00000034 00000-0 83750-5 0 9993
2 43786 97.7469 236.8479 0014893 350.8282 9.2665 14.95134384 28699
EAGLET 1
1 43790U 18099AJ 19163.84843843 -.00000237 00000-0 -16173-4 0 9998
2 43790 97.7458 236.0295 0013380 359.3220 0.7980 14.95508313 28251
ESEO
1 43792U 18099AL 19164.18053106 -.00000359 00000-0 -27119-4 0 9990
2 43792 97.7438 236.3197 0013152 355.1149 4.9941 14.95504104 28365
CSIM
1 43793U 18099AM 19164.16783644 .00000235 00000-0 26320-4 0 9990
2 43793 97.7403 236.2144 0012685 354.2782 5.8292 14.95685302 28338
Astrocast 0.1
1 43798U 18099AS 19164.15299490 .00000495 00000-0 49579-4 0 9994
2 43798 97.7447 236.3655 0011709 339.2595 20.8150 14.95730673 28590
JO-97
1 43803U 18099AX 19163.88228897 .00000646 00000-0 63848-4 0 9996
2 43803 97.7428 235.8994 0014841 354.6638 5.4422 14.95262319 28559
Suomi 100
1 43804U 18099AY 19164.14949241 .00000630 00000-0 62429-4 0 9997
2 43804 97.7425 236.1618 0014879 353.8745 6.2291 14.95262782 28608
Al Farabi 2
1 43805U 18099AZ 19164.81425766 .00000721 00000-0 70523-4 0 9998
2 43805 97.7428 236.8310 0014842 351.7189 8.3785 14.95317554 28707
PWSat 2
1 43814U 18099BJ 19164.22069959 .00013220 00000-0 10822-2 0 9993
2 43814 97.7777 237.1165 0004614 30.2742 329.8746 14.99430182 28037
CHOMPTT
1 43855U 18104G 19164.17609934 .00000587 00000-0 23563-4 0 9992
2 43855 85.0384 60.0881 0017383 344.5400 15.5311 15.22366162 27188
ISAT
1 43879U 18111D 19164.84304304 .00000718 00000-0 69087-4 0 9990
2 43879 97.7193 72.9205 0014561 45.1885 315.0550 14.95987864 23210
UWE-4
1 43880U 18111E 19164.21365858 .00000413 00000-0 41661-4 0 9994
2 43880 97.7195 72.3837 0013462 48.4973 311.7401 14.96221714 23137
Sparrow
1 43881U 18111F 19164.20859854 .00000266 00000-0 28623-4 0 9997
2 43881 97.7199 72.3987 0013548 47.0096 313.2258 14.96268853 23125
